Location: Владивосток
(43.1151°N, 131.8856°E)
Time: 03:32:41
(UTC+10:00)

CZ-6A DEB - Pass Details

Date: 17 December 2025
Orbit: 721 x 816 km, 98.7° (Epoch: 12 January)

Event Time Altitude Azimuth Distance (km) Brightness Sun altitude
Rises 07:58:10 0° 35° (NE) 3,146 ? -7.3°
Reaches altitude 10° 08:01:48 10° 63° (ENE) 2,214 ? -6.7°
Maximum altitude 08:03:58 13° 90° (E) 2,019 ? -6.3°
Drops below altitude 10° 08:06:07 10° 117° (ESE) 2,209 ? -6.0°
Sets 08:09:43 0° 145° (SE) 3,131 ? -5.4°
